IZ4UFQ-10 Weather Reports


Display with metric or nautical units.
time (UTC)temp
F
wind
direction
speed
MPH
gust
MPH
rain 1hr
in
rain 24hr
in
rain mn
in
humidity
%
barometer
mb
20260905161146 95 324 0.0 0.0 0.00 0.00 0.00 32 1014.4
20260905160646 95 334 0.0 0.0 0.00 0.00 0.00 32 1014.3
20260905160146 96 336 0.0 0.0 0.00 0.00 0.00 31 1014.4
20260905155645 95 317 0.0 0.0 0.00 0.00 0.00 32 1014.3
20260905155145 95 316 0.0 0.0 0.00 0.00 0.00 32 1014.3
20260905154645 95 354 0.0 0.0 0.00 0.00 0.00 32 1014.3
20260905154145 95 359 0.0 0.0 0.00 0.00 0.00 32 1014.3
20260905153644 96 4 0.0 0.0 0.00 0.00 0.00 31 1014.3
20260905153144 97 354 0.0 0.0 0.00 0.00 0.00 31 1014.2
20260905152644 97 283 0.0 0.0 0.00 0.00 0.00 31 1014.2
20260905152143 97 266 0.0 0.0 0.00 0.00 0.00 30 1014.2
20260905151643 96 251 0.0 0.0 0.00 0.00 0.00 31 1014.2
20260905151143 96 251 0.0 0.0 0.00 0.00 0.00 31 1014.3
20260905150643 96 257 0.0 0.0 0.00 0.00 0.00 31 1014.2
20260905150142 96 310 0.0 0.0 0.00 0.00 0.00 31 1014.3
20260905145642 96 341 0.0 0.0 0.00 0.00 0.00 31 1014.3
20260905145142 95 335 0.0 0.0 0.00 0.00 0.00 32 1014.3
20260905144641 95 16 0.0 0.0 0.00 0.00 0.00 31 1014.3
20260905144141 95 4 0.0 0.0 0.00 0.00 0.00 31 1014.4
20260905143641 95 299 0.0 0.0 0.00 0.00 0.00 31 1014.4
20260905143141 95 38 0.0 0.0 0.00 0.00 0.00 31 1014.5
20260905142640 95 316 0.0 0.0 0.00 0.00 0.00 31 1014.5
20260905142140 95 331 0.0 0.0 0.00 0.00 0.00 31 1014.5
20260905141640 95 44 0.0 0.0 0.00 0.00 0.00 31 1014.5
20260905141139 95 354 0.0 0.0 0.00 0.00 0.00 31 1014.6
20260905140639 96 146 0.0 0.0 0.00 0.00 0.00 30 1014.6
20260905140139 96 160 0.0 0.0 0.00 0.00 0.00 30 1014.6
20260905135639 96 162 0.0 0.0 0.00 0.00 0.00 30 1014.6
20260905135138 96 145 0.0 0.0 0.00 0.00 0.00 31 1014.7
20260905134638 95 145 0.0 0.0 0.00 0.00 0.00 31 1014.8
20260905134138 94 145 0.0 0.0 0.00 0.00 0.00 31 1014.8
20260905133637 94 147 0.0 0.0 0.00 0.00 0.00 31 1014.9
20260905133137 94 28 0.0 0.0 0.00 0.00 0.00 31 1015.0
20260905132637 93 28 0.0 0.0 0.00 0.00 0.00 32 1015.1
20260905132136 93 28 0.0 0.0 0.00 0.00 0.00 31 1015.1
20260905131636 94 343 0.0 0.0 0.00 0.00 0.00 31 1015.1
20260905131136 93 349 0.0 0.0 0.00 0.00 0.00 31 1015.2
20260905130636 94 346 0.0 0.0 0.00 0.00 0.00 31 1015.2
20260905130135 94 309 0.0 0.0 0.00 0.00 0.00 31 1015.4
20260905125635 93 14 0.0 0.0 0.00 0.00 0.00 31 1015.3
20260905125135 93 14 0.0 0.0 0.00 0.00 0.00 31 1015.4
20260905124634 93 18 0.0 0.0 0.00 0.00 0.00 31 1015.5
20260905124134 93 359 0.0 0.0 0.00 0.00 0.00 31 1015.5
20260905123634 93 46 0.0 0.0 0.00 0.00 0.00 32 1015.5
20260905123134 92 4 0.0 0.0 0.00 0.00 0.00 32 1015.6
20260905122633 92 10 0.0 0.0 0.00 0.00 0.00 32 1015.6
20260905122133 92 26 0.0 0.0 0.00 0.00 0.00 32 1015.6
20260905121633 92 16 0.0 0.0 0.00 0.00 0.00 32 1015.8
20260905121132 92 8 0.0 0.0 0.00 0.00 0.00 31 1015.8
20260905120632 92 14 0.0 0.0 0.00 0.00 0.00 31 1015.9
20260905120132 92 306 0.0 0.0 0.00 0.00 0.00 31 1015.9
20260905115632 91 25 0.0 0.0 0.00 0.00 0.00 32 1015.9
20260905115131 91 359 0.0 0.0 0.00 0.00 0.00 32 1016.0
20260905114631 92 4 0.0 0.0 0.00 0.00 0.00 31 1015.9
20260905114131 92 9 0.0 0.0 0.00 0.00 0.00 32 1015.9
20260905113630 92 340 0.0 0.0 0.00 0.00 0.00 31 1015.9
20260905113130 92 310 0.0 0.0 0.00 0.00 0.00 30 1015.8
20260905112630 92 359 0.0 0.0 0.00 0.00 0.00 30 1015.8
20260905112130 92 12 0.0 0.0 0.00 0.00 0.00 29 1015.8
20260905111629 92 285 0.0 0.0 0.00 0.00 0.00 30 1015.9
20260905111129 92 359 0.0 0.0 0.00 0.00 0.00 30 1016.0
20260905110629 91 300 0.0 0.0 0.00 0.00 0.00 30 1016.0
20260905110128 91 334 0.0 0.0 0.00 0.00 0.00 31 1016.1
20260905105628 90 359 0.0 0.0 0.00 0.00 0.00 33 1016.0
20260905105128 90 12 0.0 0.0 0.00 0.00 0.00 33 1016.0
20260905104628 90 330 0.0 0.0 0.00 0.00 0.00 33 1016.1
20260905104127 90 330 0.0 0.0 0.00 0.00 0.00 33 1016.2
20260905103627 90 312 0.0 0.0 0.00 0.00 0.00 33 1016.2
20260905103127 90 27 0.0 0.0 0.00 0.00 0.00 33 1016.1
20260905102626 89 291 0.0 0.0 0.00 0.00 0.00 33 1016.2
20260905102126 89 4 0.0 0.0 0.00 0.00 0.00 34 1016.3
20260905101626 89 330 0.0 0.0 0.00 0.00 0.00 34 1016.3
20260905101126 89 313 0.0 0.0 0.00 0.00 0.00 35 1016.3
20260905100625 88 332 0.0 0.0 0.00 0.00 0.00 35 1016.4
20260905100125 88 287 0.0 0.0 0.00 0.00 0.00 37 1016.4
20260905095625 88 285 0.0 0.0 0.00 0.00 0.00 37 1016.4
20260905095124 87 306 0.0 0.0 0.00 0.00 0.00 37 1016.5
20260905094624 87 315 0.0 0.0 0.00 0.00 0.00 36 1016.6
20260905094124 88 303 0.0 0.0 0.00 0.00 0.00 35 1016.5
20260905093623 88 287 0.0 0.0 0.00 0.00 0.00 37 1016.6
20260905093123 87 285 0.0 0.0 0.00 0.00 0.00 37 1016.6
20260905092623 87 340 0.0 0.0 0.00 0.00 0.00 37 1016.7
20260905092123 87 302 0.0 0.0 0.00 0.00 0.00 36 1016.7
20260905091622 87 298 0.0 0.0 0.00 0.00 0.00 37 1016.7
20260905091122 87 253 0.0 0.0 0.00 0.00 0.00 37 1016.7
20260905090622 87 289 0.0 0.0 0.00 0.00 0.00 39 1016.7
20260905090121 87 310 0.0 0.0 0.00 0.00 0.00 37 1016.7
20260905085621 87 313 0.0 0.0 0.00 0.00 0.00 39 1016.6
20260905085121 86 315 0.0 0.0 0.00 0.00 0.00 38 1016.6
20260905084621 86 247 0.0 0.0 0.00 0.00 0.00 39 1016.5
20260905084120 86 251 0.0 0.0 0.00 0.00 0.00 39 1016.4
20260905083620 85 277 0.0 0.0 0.00 0.00 0.00 40 1016.4
20260905083120 85 248 0.0 0.0 0.00 0.00 0.00 41 1016.4
20260905082619 85 241 0.0 0.0 0.00 0.00 0.00 41 1016.4
20260905082119 85 256 0.0 0.0 0.00 0.00 0.00 41 1016.4
20260905081619 85 275 0.0 0.0 0.00 0.00 0.00 42 1016.3
20260905081119 85 296 0.0 0.0 0.00 0.00 0.00 42 1016.3
20260905080618 85 245 0.0 0.0 0.00 0.00 0.00 42 1016.2
20260905080118 85 279 0.0 0.0 0.00 0.00 0.00 42 1016.1
20260905075618 84 292 0.0 0.0 0.00 0.00 0.00 42 1016.1
20260905075117 84 260 0.0 0.0 0.00 0.00 0.00 41 1016.0
20260905074617 84 243 0.0 0.0 0.00 0.00 0.00 41 1016.0
20260905074117 84 264 0.0 0.0 0.00 0.00 0.00 40 1015.9
20260905073617 84 266 0.0 0.0 0.00 0.00 0.00 40 1015.9
20260905073116 84 265 0.0 0.0 0.00 0.00 0.00 39 1015.9
20260905072616 84 301 0.0 0.0 0.00 0.00 0.00 39 1015.8
20260905072116 84 296 0.0 0.0 0.00 0.00 0.00 40 1015.7
20260905071615 83 243 0.0 0.0 0.00 0.00 0.00 40 1015.7
20260905071115 83 305 0.0 0.0 0.00 0.00 0.00 40 1015.9
20260905070615 83 235 0.0 0.0 0.00 0.00 0.00 40 1015.8
20260905070115 83 244 0.0 0.0 0.00 0.00 0.00 42 1015.8
20260905065614 82 236 0.0 0.0 0.00 0.00 0.00 43 1015.8
20260905065114 82 233 0.0 0.0 0.00 0.00 0.00 44 1015.8
20260905064614 82 243 0.0 0.0 0.00 0.00 0.00 44 1015.8
20260905064113 81 221 0.0 0.0 0.00 0.00 0.00 44 1015.7
20260905063613 81 204 0.0 0.0 0.00 0.00 0.00 45 1015.6
20260905063113 81 209 0.0 0.0 0.00 0.00 0.00 45 1015.5
20260905062613 81 226 0.0 0.0 0.00 0.00 0.00 46 1015.4
20260905062112 80 209 0.0 0.0 0.00 0.00 0.00 46 1015.2
20260905061612 80 204 0.0 0.0 0.00 0.00 0.00 46 1015.2
20260905061112 80 218 0.0 0.0 0.00 0.00 0.00 46 1015.3
20260905060611 79 222 0.0 0.0 0.00 0.00 0.00 47 1015.2
20260905060111 79 234 0.0 0.0 0.00 0.00 0.00 47 1015.3
20260905055611 79 206 0.0 0.0 0.00 0.00 0.00 48 1015.3
20260905055111 78 223 0.0 0.0 0.00 0.00 0.00 49 1015.3
20260905054610 78 255 0.0 0.0 0.00 0.00 0.00 49 1015.2
20260905054110 78 216 0.0 0.0 0.00 0.00 0.00 49 1015.2
20260905053610 77 215 0.0 0.0 0.00 0.00 0.00 49 1015.1
20260905053109 77 215 0.0 0.0 0.00 0.00 0.00 50 1015.2
20260905052609 77 215 0.0 0.0 0.00 0.00 0.00 50 1015.3
20260905052109 76 214 0.0 0.0 0.00 0.00 0.00 51 1015.3
20260905051608 76 214 0.0 0.0 0.00 0.00 0.00 51 1015.2
20260905051108 76 214 0.0 0.0 0.00 0.00 0.00 51 1015.2
20260905050608 76 212 0.0 0.0 0.00 0.00 0.00 52 1015.2
20260905050108 76 212 0.0 0.0 0.00 0.00 0.00 52 1015.1
20260905045607 76 212 0.0 0.0 0.00 0.00 0.00 52 1015.1
20260905045107 76 212 0.0 0.0 0.00 0.00 0.00 52 1015.1
20260905044607 76 212 0.0 0.0 0.00 0.00 0.00 52 1015.2
20260905044106 76 212 0.0 0.0 0.00 0.00 0.00 51 1015.3
20260905043606 76 212 0.0 0.0 0.00 0.00 0.00 51 1015.3
20260905043106 77 212 0.0 0.0 0.00 0.00 0.00 50 1015.2
20260905042606 77 212 0.0 0.0 0.00 0.00 0.00 50 1015.1
20260905042106 77 212 0.0 0.0 0.00 0.00 0.00 50 1015.2
20260905041605 77 211 0.0 0.0 0.00 0.00 0.00 49 1015.2
20260905041105 77 223 0.0 0.0 0.00 0.00 0.00 49 1015.2
20260905040604 77 237 0.0 0.0 0.00 0.00 0.00 49 1015.2
20260905040104 77 243 0.0 0.0 0.00 0.00 0.00 49 1015.2
20260905035604 77 274 0.0 0.0 0.00 0.00 0.00 49 1015.2
20260905035104 78 274 0.0 0.0 0.00 0.00 0.00 49 1015.2
20260905034640 78 274 0.0 0.0 0.00 0.00 0.00 49 1015.2
20260905034603 78 274 0.0 0.0 0.00 0.00 0.00 49 1015.2
20260905034103 78 220 0.0 0.0 0.00 0.00 0.00 49 1015.2
20260905033603 78 234 0.0 0.0 0.00 0.00 0.00 49 1015.0
20260905033102 77 235 0.0 0.0 0.00 0.00 0.00 49 1014.9
20260905032602 77 237 0.0 0.0 0.00 0.00 0.00 49 1014.9
20260905032102 78 244 0.0 0.0 0.00 0.00 0.00 49 1014.9
20260905031602 78 250 0.0 0.0 0.00 0.00 0.00 48 1014.8
20260905031101 78 249 0.0 0.0 0.00 0.00 0.00 48 1014.8
20260905030601 78 249 0.0 0.0 0.00 0.00 0.00 48 1014.9
20260905030101 78 242 0.0 0.0 0.00 0.00 0.00 48 1014.8
20260905025600 78 242 0.0 0.0 0.00 0.00 0.00 48 1014.9
20260905025100 78 239 0.0 0.0 0.00 0.00 0.00 47 1014.9
20260905024600 79 242 0.0 0.0 0.00 0.00 0.00 47 1014.9
20260905024100 79 271 0.0 0.0 0.00 0.00 0.00 47 1014.9
20260905023559 79 251 0.0 0.0 0.00 0.00 0.00 47 1014.9
20260905023059 79 265 0.0 0.0 0.00 0.00 0.00 47 1014.9
20260905022559 79 253 0.0 0.0 0.00 0.00 0.00 47 1014.9
20260905022058 79 247 0.0 0.0 0.00 0.00 0.00 47 1014.9
20260905021558 79 239 0.0 0.0 0.00 0.00 0.00 47 1014.9
20260905021058 79 243 0.0 0.0 0.00 0.00 0.00 46 1014.9
20260905020558 79 252 0.0 0.0 0.00 0.00 0.00 46 1014.9
20260905020058 79 260 0.0 0.0 0.00 0.00 0.00 46 1014.9
20260905015557 79 224 0.0 0.0 0.00 0.00 0.00 46 1014.9
20260905015057 79 235 0.0 0.0 0.00 0.00 0.00 46 1014.8
20260905014556 80 268 0.0 0.0 0.00 0.00 0.00 46 1014.9
20260905014056 80 228 0.0 0.0 0.00 0.00 0.00 46 1014.9
20260905013556 80 231 0.0 0.0 0.00 0.00 0.00 45 1015.0
20260905013055 80 236 0.0 0.0 0.00 0.00 0.00 45 1015.0
20260905012555 80 230 0.0 0.0 0.00 0.00 0.00 45 1015.0
20260905012055 80 210 0.0 0.0 0.00 0.00 0.00 45 1015.0
20260905011555 80 205 0.0 0.0 0.00 0.00 0.00 45 1015.0
20260905011054 80 224 0.0 0.0 0.00 0.00 0.00 45 1015.0
20260905010554 80 195 0.0 0.0 0.00 0.00 0.00 45 1015.0
20260905010054 80 200 0.0 0.0 0.00 0.00 0.00 45 1014.9
20260905005553 80 218 0.0 0.0 0.00 0.00 0.00 45 1014.9
20260905005053 80 224 0.0 0.0 0.00 0.00 0.00 45 1014.9
20260905004553 80 233 0.0 0.0 0.00 0.00 0.00 45 1014.9
20260905004053 80 228 0.0 0.0 0.00 0.00 0.00 45 1015.0
20260905003552 80 204 0.0 0.0 0.00 0.00 0.00 45 1015.0
20260905003052 80 222 0.0 0.0 0.00 0.00 0.00 45 1015.0
20260905002552 80 220 0.0 0.0 0.00 0.00 0.00 45 1015.1
20260905002051 80 229 0.0 0.0 0.00 0.00 0.00 45 1015.1
20260905001551 80 251 0.0 0.0 0.00 0.00 0.00 44 1015.2
20260905001051 80 226 0.0 0.0 0.00 0.00 0.00 44 1015.3
20260905000551 80 213 0.0 0.0 0.00 0.00 0.00 45 1015.2
20260905000050 80 203 0.0 0.0 0.00 0.00 0.00 44 1015.3
20260904235550 81 239 0.0 0.0 0.00 0.00 0.00 44 1015.4
20260904235050 81 221 0.0 0.0 0.00 0.00 0.00 44 1015.4
20260904234550 81 225 0.0 0.0 0.00 0.00 0.00 44 1015.5
20260904234049 81 244 0.0 0.0 0.00 0.00 0.00 44 1015.5
20260904233549 81 215 0.0 0.0 0.00 0.00 0.00 44 1015.5
20260904233049 81 204 0.0 0.0 0.00 0.00 0.00 44 1015.5
20260904232548 81 234 0.0 0.0 0.00 0.00 0.00 45 1015.6
20260904232048 81 204 0.0 0.0 0.00 0.00 0.00 45 1015.6
20260904231548 81 226 0.0 0.0 0.00 0.00 0.00 45 1015.6
20260904231047 81 239 0.0 0.0 0.00 0.00 0.00 45 1015.6
20260904230547 81 258 0.0 0.0 0.00 0.00 0.00 45 1015.6
20260904230047 81 237 0.0 0.0 0.00 0.00 0.00 45 1015.6
20260904225547 81 242 0.0 0.0 0.00 0.00 0.00 45 1015.6
20260904225046 81 243 0.0 0.0 0.00 0.00 0.00 45 1015.6
20260904224546 81 240 0.0 0.0 0.00 0.00 0.00 44 1015.6
20260904224046 81 247 0.0 0.0 0.00 0.00 0.00 44 1015.6
20260904223545 81 224 0.0 0.0 0.00 0.00 0.00 44 1015.7
20260904223045 81 222 0.0 0.0 0.00 0.00 0.00 44 1015.7
20260904222545 81 204 0.0 0.0 0.00 0.00 0.00 44 1015.7
20260904222045 81 228 0.0 0.0 0.00 0.00 0.00 44 1015.7
20260904221544 82 239 0.0 0.0 0.00 0.00 0.00 43 1015.8
20260904221044 82 230 0.0 0.0 0.00 0.00 0.00 43 1015.7
20260904220544 82 237 0.0 0.0 0.00 0.00 0.00 43 1015.8
20260904220043 82 226 0.0 0.0 0.00 0.00 0.00 43 1015.7
20260904215543 82 235 0.0 0.0 0.00 0.00 0.00 43 1015.7
20260904215043 82 214 0.0 0.0 0.00 0.00 0.00 43 1015.7
20260904214614 82 212 0.0 0.0 0.00 0.00 0.00 44 1015.8
20260904214542 82 212 0.0 0.0 0.00 0.00 0.00 44 1015.8
20260904214042 82 197 0.0 0.0 0.00 0.00 0.00 44 1015.7
20260904213542 82 227 0.0 0.0 0.00 0.00 0.00 45 1015.7
20260904213042 82 235 0.0 0.0 0.00 0.00 0.00 45 1015.6
20260904212541 82 214 0.0 0.0 0.00 0.00 0.00 46 1015.6
20260904212041 82 240 0.0 0.0 0.00 0.00 0.00 46 1015.6
20260904211541 82 230 0.0 0.0 0.00 0.00 0.00 47 1015.6
20260904211040 82 235 0.0 0.0 0.00 0.00 0.00 47 1015.6
20260904210540 83 235 0.0 0.0 0.00 0.00 0.00 47 1015.6
20260904210040 83 243 0.0 0.0 0.00 0.00 0.00 47 1015.6
20260904205540 82 228 0.0 0.0 0.00 0.00 0.00 48 1015.6
20260904205039 82 193 0.0 0.0 0.00 0.00 0.00 49 1015.6
20260904204612 81 222 0.0 0.0 0.00 0.00 0.00 51 1015.6
20260904204539 81 222 0.0 0.0 0.00 0.00 0.00 51 1015.6
20260904204039 81 226 0.0 0.0 0.00 0.00 0.00 53 1015.6
20260904203538 80 225 0.0 0.0 0.00 0.00 0.00 55 1015.7
20260904203110 80 225 0.0 0.0 0.00 0.00 0.00 55 1015.7
20260904203038 80 225 0.0 0.0 0.00 0.00 0.00 55 1015.7
20260904202538 80 226 0.0 0.0 0.00 0.00 0.00 57 1015.7
20260904202038 79 226 0.0 0.0 0.00 0.00 0.00 58 1015.7
20260904201537 79 170 0.0 0.0 0.00 0.00 0.00 59 1015.7
20260904201037 79 170 0.0 0.0 0.00 0.00 0.00 59 1015.7
20260904200537 80 170 0.0 0.0 0.00 0.00 0.00 58 1015.7
20260904200355 80 170 0.0 0.0 0.00 0.00 0.00 57 1015.7
20260904200314 80 170 0.0 0.0 0.00 0.00 0.00 57 1015.7
20260904200115 80 170 0.0 0.0 0.00 0.00 0.00 57 1015.7
20260904200036 80 170 0.0 0.0 0.00 0.00 0.00 57 1015.7
20260904195536 80 119 0.0 0.0 0.00 0.00 0.00 57 1015.7
20260904195036 81 119 0.0 0.0 0.00 0.00 0.00 56 1015.8
20260904194536 81 119 0.0 0.0 0.00 0.00 0.00 56 1015.7
20260904194035 82 119 0.0 0.0 0.00 0.00 0.00 55 1015.8
20260904193535 82 119 0.0 0.0 0.00 0.00 0.00 55 1015.7
20260904193035 82 119 0.0 0.0 0.00 0.00 0.00 54 1015.7
20260904192534 82 119 0.0 0.0 0.00 0.00 0.00 53 1015.8
20260904192034 83 119 0.0 0.0 0.00 0.00 0.00 53 1015.7
20260904191607 83 119 0.0 0.0 0.00 0.00 0.00 52 1015.7
20260904191534 83 119 0.0 0.0 0.00 0.00 0.00 52 1015.7
20260904191034 83 119 0.0 0.0 0.00 0.00 0.00 52 1015.7
20260904190533 84 119 0.0 0.0 0.00 0.00 0.00 51 1015.6
20260904190033 84 119 0.0 0.0 0.00 0.00 0.00 51 1015.6
20260904185533 84 119 0.0 0.0 0.00 0.00 0.00 50 1015.7
20260904185032 84 119 0.0 0.0 0.00 0.00 0.00 50 1015.6
20260904184609 84 119 0.0 0.0 0.00 0.00 0.00 50 1015.6
20260904184532 84 119 0.0 0.0 0.00 0.00 0.00 50 1015.6
20260904184032 85 119 0.0 0.0 0.00 0.00 0.00 49 1015.5
20260904183532 85 119 0.0 0.0 0.00 0.00 0.00 49 1015.5
20260904183031 85 120 0.0 0.0 0.00 0.00 0.00 48 1015.5
20260904182531 86 120 0.0 0.0 0.00 0.00 0.00 48 1015.4
20260904182031 86 118 0.0 0.0 0.00 0.00 0.00 47 1015.4
20260904181530 86 120 0.0 0.0 0.00 0.00 0.00 46 1015.5
20260904181030 86 127 0.0 0.0 0.00 0.00 0.00 46 1015.5
20260904180530 87 110 0.0 0.0 0.00 0.00 0.00 45 1015.4
20260904180353 87 108 0.0 0.0 0.00 0.00 0.00 45 1015.3
20260904180322 87 108 0.0 0.0 0.00 0.00 0.00 45 1015.3
20260904180030 87 108 0.0 0.0 0.00 0.00 0.00 45 1015.3
20260904175529 87 112 0.0 0.0 0.00 0.00 0.00 45 1015.3
20260904175029 88 108 0.0 0.0 0.00 0.00 0.00 44 1015.2
20260904174648 88 128 0.0 0.0 0.00 0.00 0.00 44 1015.2
20260904174606 88 128 0.0 0.0 0.00 0.00 0.00 44 1015.2
20260904174529 88 128 0.0 0.0 0.00 0.00 0.00 44 1015.2
20260904174028 88 111 0.0 0.0 0.00 0.00 0.00 44 1015.2
20260904173528 88 95 0.0 0.0 0.00 0.00 0.00 43 1015.2
20260904173028 89 100 0.0 0.0 0.00 0.00 0.00 43 1015.3
20260904172528 89 122 0.0 0.0 0.00 0.00 0.00 43 1015.3
20260904172027 89 137 0.0 0.0 0.00 0.00 0.00 43 1015.3
20260904171527 89 115 0.0 0.0 0.00 0.00 0.00 42 1015.3
20260904171027 90 82 0.0 0.0 0.00 0.00 0.00 42 1015.4
20260904170526 90 72 0.0 0.0 0.00 0.00 0.00 42 1015.4
20260904170026 90 69 0.0 0.0 0.00 0.00 0.00 42 1015.4
20260904165526 90 99 0.0 0.0 0.00 0.00 0.00 41 1015.4
20260904165026 91 87 0.0 0.0 0.00 0.00 0.00 41 1015.4
20260904164525 91 102 0.0 0.0 0.00 0.00 0.00 41 1015.5
20260904164025 91 92 0.0 0.0 0.00 0.00 0.00 40 1015.5
20260904163525 92 108 0.0 0.0 0.00 0.00 0.00 39 1015.5
20260904163024 92 73 0.0 0.0 0.00 0.00 0.00 38 1015.5
20260904162524 92 83 0.0 0.0 0.00 0.00 0.00 38 1015.5
20260904162024 93 37 0.0 0.0 0.00 0.00 0.00 37 1015.4
20260904161523 93 68 0.0 0.0 0.00 0.00 0.00 36 1015.4